Location: Molveno
(46.1500°N, 10.9667°E)
Time: 06:54:32
(UTC+00:00)

Cosmos 2278 Rocket - Pass Details

Date: 05 July 2020
Orbit: 841 x 846 km, 71.0° (Epoch: 05 August)

Event Time Altitude Azimuth Distance (km) Brightness Sun altitude
Rises 21:01:10 0° 336° (NNW) 3,416 7.2 -14.2°
Reaches altitude 10° 21:03:43 10° 342° (NNW) 2,477 5.9 -14.5°
Maximum altitude 21:09:14 51° 58° (ENE) 1,058 2.7 -15.0°
Enters shadow 21:12:55 21° 126° (SE) 1,825 3.4 -15.3°
